Tracking 28790 objects as of 19-Apr-2024
HD Live streaming from Space Station
objects crossing your sky now

MOLNIYA 3-8

Track MOLNIYA 3-8 now!
MOLNIYA 3-8 is classified as:


NORAD ID: 10455
Int'l Code: 1977-105A
Perigee: 1,321.0 km
Apogee: 39,060.7 km
Inclination: 63.6 °
Period: 718.0 minutes
Semi major axis: 26561 km
RCS: 13.5006 m2 (large)
Launch date: October 28, 1977
Source: Commonwealth of Independent States (former USSR) (CIS)
Launch site: PLESETSK MISSILE AND SPACE COMPLEX (PKMTR)
Your satellite tracking list
Your tracking list is empty




NASA's NSSDC Master Catalog

Two Line Element Set (TLE):
1 10455U 77105A   24102.41816858 -.00001188  00000-0  00000-0 0  9994
2 10455  63.6452 263.8055 7104125 282.3052  12.2295  2.00546608340463
Source of the keplerian elements: AFSPC